Погода в Лешно

Польша     51°50′35″N   16°34′33″E
темп.,
°C
ветер,
м/с
пор.,
м/с
влажн.,
%
обл.,
%
осадки,
мм/ч
давл.,
гПа
погр.,
м
28 февраля, вс
вс2801:00+2зсз499717 0.0 1038223
04:00+3з499379 0.0 1036372
07:00+1з499473 0.0 1036266
10:00+5з58780 0.0 1036461
13:00+8зсз68682 0.0 1034638
16:00+9сз58710 0.0 1033830
19:00+5сз36890 0.0 1034106
22:00+3сз33920 0.0 103557
1 марта, пн
пн101:00+2сз23930 0.0 103646
04:00+1сз22940 0.0 103522
07:00+1зсз12940 0.0 103622
10:00+6з22780 0.0 1036323
13:00+9з23620 0.0 1036530
16:00+10з23590 0.0 1034527
19:00+6з22730 0.0 103522
22:00+5з22810 0.0 103522
2 марта, вт
вт201:00+4з23870 0.0 103522
04:00+3з23900 0.0 103425
07:00+2з23910 0.0 103431
10:00+7зсз34680 0.0 1034287
13:00+11зсз34490 0.0 1033552
16:00+11зсз24530 0.0 1032439
19:00+7сз22670 0.0 103222
22:00+5ссз12760 0.0 103322
3 марта, ср
ср301:00+4сз11820 0.0 103322
04:00+3юз11830 0.0 103222
07:00+3юз12810 0.0 103122
10:00+8зюз22610 0.0 1031257
13:00+12зюз22520 0.0 1029552
16:00+12юз12548 0.0 1027684
19:00+8ю22685 0.0 102622
22:00+6ююз33770 0.0 102536
4 марта, чт
чт401:00+5юз337936 0.0 102356
04:00+4юз348486 0.0 102085
07:00+4зюз378986 0.0 1018175
10:00+9з587497 0.0 1017422
13:00+12з696493 0.0 10151174
16:00+9зюз71085100 0.3 1013544
19:00+8з5994100 3.3 1011543
22:00+7зсз5991100 6.1 1011650